FW3241 Weather Reports


time (UTC)temp
F
wind
direction
speed
knots
gust
knots
rain 1hr
in
rain 24hr
in
rain mn
in
humidity
%
barometer
mb
20260509104559 50 236 0.0 0.9 0.00 0.00 0.00 60 1013.5
20260509103055 50 198 0.0 3.5 0.00 0.00 0.00 59 1013.0
20260509101555 49 228 0.9 3.5 0.00 0.00 0.00 58 1012.7
20260509100058 49 246 0.0 2.6 0.00 0.00 0.00 61 1012.9
20260509094554 49 198 0.0 3.5 0.00 0.00 0.00 61 1012.8
20260509093052 49 255 0.0 4.3 0.00 0.00 0.00 61 1013.0
20260509091550 49 42 0.9 2.6 0.00 0.00 0.00 61 1012.8
20260509090049 48 157 0.0 1.7 0.00 0.00 0.00 65 1012.9
20260509084553 48 227 0.0 1.7 0.00 0.00 0.00 66 1013.0
20260509083047 48 188 0.0 3.5 0.00 0.00 0.00 66 1013.0
20260509081548 48 238 0.9 4.3 0.00 0.00 0.00 66 1013.1
20260509080043 48 234 0.0 4.3 0.00 0.00 0.00 66 1013.2
20260509074545 48 227 0.9 3.5 0.00 0.00 0.00 67 1013.7
20260509073041 48 184 0.0 1.7 0.00 0.00 0.00 66 1013.3
20260509071544 47 190 0.9 1.7 0.00 0.00 0.00 66 1013.3
20260509070035 48 194 0.9 1.7 0.00 0.00 0.00 67 1013.7
20260509064533 48 194 0.9 1.7 0.00 0.00 0.00 67 1014.0
20260509063034 48 195 0.0 0.9 0.00 0.00 0.00 67 1013.9
20260509061535 48 195 0.0 0.9 0.00 0.00 0.00 67 1014.6
20260509060027 48 195 0.0 0.9 0.00 0.00 0.00 67 1015.0
20260509054525 48 196 0.0 3.5 0.00 0.00 0.00 67 1015.1
20260509053028 48 230 0.0 4.3 0.00 0.00 0.00 67 1015.5
20260509051529 48 191 0.0 2.6 0.00 0.00 0.00 68 1015.7
20260509050022 49 189 0.0 0.9 0.00 0.00 0.00 67 1016.0
20260509044522 49 135 0.0 0.9 0.00 0.00 0.00 67 1016.0
20260509043016 49 135 0.0 1.7 0.00 0.00 0.00 66 1016.1
20260509041514 49 130 0.0 2.6 0.00 0.00 0.00 65 1016.4
20260509040015 50 130 0.0 9.6 0.00 0.00 0.00 64 1016.3
20260509034514 50 182 0.9 6.1 0.00 0.00 0.00 65 1016.3
20260509033011 50 239 0.9 6.1 0.00 0.00 0.00 66 1016.6
20260509031510 50 180 0.9 6.1 0.00 0.00 0.00 66 1016.7
20260509030010 50 154 0.0 1.7 0.00 0.00 0.00 65 1016.4
20260509024510 50 191 0.0 1.7 0.00 0.00 0.00 65 1016.3
20260509023015 50 206 0.0 1.7 0.00 0.00 0.00 65 1016.3
20260509021514 51 200 0.0 0.9 0.00 0.00 0.00 64 1016.3
20260509020008 51 251 0.9 3.5 0.00 0.00 0.00 63 1016.5
20260509014508 51 193 0.0 1.7 0.00 0.00 0.00 63 1016.4
20260509013021 52 192 0.9 2.6 0.00 0.00 0.00 62 1016.2
20260509011507 52 200 0.0 0.9 0.00 0.00 0.00 62 1016.1
20260509010006 52 200 0.0 0.9 0.00 0.00 0.00 61 1016.3
20260509004506 53 200 0.0 1.7 0.00 0.00 0.00 60 1016.2
20260509003005 53 201 0.0 0.9 0.00 0.00 0.00 59 1016.1
20260509001507 54 201 0.0 1.7 0.00 0.00 0.00 56 1016.1
20260509000004 55 202 0.0 1.7 0.00 0.00 0.00 58 1015.9
20260508234506 55 232 0.0 5.2 0.00 0.00 0.00 56 1015.8
20260508233105 56 150 0.0 2.6 0.00 0.00 0.00 54 1015.8
20260508231501 56 192 0.9 2.6 0.00 0.00 0.00 54 1015.8
20260508230103 57 188 0.9 5.2 0.00 0.00 0.00 51 1015.8
20260508224609 58 192 0.0 1.7 0.00 0.00 0.00 45 1016.0
20260508223059 59 198 0.0 1.7 0.00 0.00 0.00 43 1015.8
20260508221604 60 197 0.9 3.5 0.00 0.00 0.00 42 1016.0
20260508220059 61 196 0.0 4.3 0.00 0.00 0.00 43 1016.1
20260508214556 62 205 0.0 3.5 0.00 0.00 0.00 39 1015.9
20260508213114 62 223 0.9 7.0 0.00 0.00 0.00 38 1016.1
20260508211554 61 190 0.0 3.5 0.00 0.00 0.00 34 1016.0
20260508210054 61 183 0.9 1.7 0.00 0.00 0.00 36 1015.9
20260508204554 61 197 0.0 2.6 0.00 0.00 0.00 40 1016.2
20260508203109 61 183 0.9 1.7 0.00 0.00 0.00 34 1016.5
20260508201551 62 200 0.0 2.6 0.00 0.00 0.00 39 1016.7
20260508200055 62 216 0.9 3.5 0.00 0.00 0.00 34 1016.6
20260508194550 61 186 0.0 4.3 0.00 0.00 0.00 35 1016.9
20260508193123 62 207 1.7 3.5 0.00 0.00 0.00 31 1017.3
20260508191551 63 248 2.6 7.0 0.00 0.00 0.00 29 1017.6
20260508190048 63 219 1.7 5.2 0.00 0.00 0.00 32 1017.5
20260508184607 63 242 2.6 6.1 0.00 0.00 0.00 30 1017.8
20260508183046 63 252 2.6 6.1 0.00 0.00 0.00 27 1017.7
20260508181546 63 244 1.7 4.3 0.00 0.00 0.00 30 1018.0
20260508180045 62 242 1.7 4.3 0.00 0.00 0.00 31 1018.0
20260508174556 61 243 2.6 4.3 0.00 0.00 0.00 34 1018.1
20260508173035 60 248 1.7 4.3 0.00 0.00 0.00 41 1018.4
20260508171531 58 253 0.9 3.5 0.00 0.00 0.00 45 1018.4
20260508170026 56 260 0.0 2.6 0.00 0.00 0.00 55 1018.7
20260508164533 55 237 0.0 3.5 0.00 0.00 0.00 61 1019.0
20260508163024 55 264 0.9 2.6 0.00 0.00 0.00 64 1019.1
20260508161534 53 264 0.9 3.5 0.00 0.00 0.00 63 1019.2
20260508160014 52 263 0.9 2.6 0.00 0.00 0.00 65 1019.3
20260508154510 51 283 1.7 2.6 0.00 0.00 0.00 68 1019.4
20260508153007 50 288 0.0 2.6 0.00 0.00 0.00 70 1019.7
20260508151506 49 291 0.0 1.7 0.00 0.00 0.00 70 1019.6
20260508150100 48 287 0.0 2.6 0.00 0.00 0.00 72 1019.6
20260508144557 47 288 0.0 2.6 0.00 0.00 0.00 74 1019.6
20260508143057 46 289 0.9 2.6 0.00 0.00 0.00 76 1019.7
20260508141551 45 304 0.0 1.7 0.00 0.00 0.00 77 1019.7
20260508140050 44 304 0.0 1.7 0.00 0.00 0.00 78 1019.7
20260508134547 44 304 0.0 2.6 0.00 0.01 0.00 77 1019.8
20260508133102 43 51 0.0 1.7 0.00 0.01 0.00 76 1019.7
20260508131544 42 51 0.0 0.9 0.00 0.01 0.00 74 1019.6
20260508130043 42 51 0.0 0.0 0.00 0.01 0.00 76 1019.4
20260508124541 41 51 0.0 0.0 0.00 0.01 0.00 72 1019.3
20260508123041 41 51 0.0 0.0 0.00 0.01 0.00 71 1019.2
20260508121538 40 51 0.0 0.0 0.00 0.01 0.00 75 1019.0
20260508120040 40 51 0.0 0.0 0.00 0.01 0.00 76 1018.9
20260508114535 39 51 0.0 0.0 0.00 0.09 0.00 77 1018.8
20260508113037 39 51 0.0 0.0 0.00 0.09 0.00 77 1018.4
20260508111530 39 51 0.0 0.0 0.00 0.09 0.00 78 1018.2
20260508110028 39 51 0.0 0.0 0.00 0.09 0.00 81 1017.9